Flag for U.S.A. Weather past 2 weeks in Boise, Idaho, U.S.A.

Now
46 °F

Scattered clouds.


Feels Like: 41 °F
Forecast: 34 / 50 °F
Wind: 10 mph from Northwest

Location: Boise Air Terminal

Current Time: Feb 28, 2015 at 4:26:35 PM

Latest Report: Feb 28, 2015 at 3:53 PM


Visibility: 10 mi

Pressure: 29.86 "Hg

Humidity: 61%

Dew point: 33 °F

Location of BoiseLocation

Historic Weather in Boise — Graph

°F

Boise temperature yesterday

Maximum temperature yesterday: 52 °F (at 3:53 PM)
Minimum temperature yesterday: 36 °F (at 12:53 AM)
Average temperature yesterday: 43 °F

Past Weeks' High & Low Weather Summary

 TemperatureHumidityPressure
High59 °F (Feb 19, 3:53 PM)96% (Feb 14, 1:53 AM)30.46 "Hg (Feb 14, 1:53 AM)
Low22 °F (Feb 23, 4:53 AM)23% (Feb 24, 4:53 PM)29.63 "Hg (Feb 27, 4:53 PM)
Average41 °F61%30.16 "Hg
* Reported Feb 13 2:53 PM — Feb 28 2:53 PM, Boise, Weather by CustomWeather, © 2015

Note: Actual official high and low records may vary slightly from our data, if they occured in-between our weather recording intervals... More about our weather records

Advertising

Boise weather history for previous 24 hours

 ConditionsComfort  
Time TempWeatherWind HumidityBarometerVisibility
2:53 PM
Sat, Feb 28
43 °FPartly sunny.9 mph68%29.85 "Hg10 mi
1:53 PM41 °FMostly cloudy.9 mph74%29.87 "Hg10 mi
12:53 PM40 °FOvercast.8 mph77%29.87 "Hg10 mi
11:53 AM38 °FMostly cloudy.6 mph86%29.87 "Hg10 mi
10:53 AM37 °FOvercast.3 mph82%29.87 "Hg10 mi
10:00 AM37 °FOvercast.No wind87%29.83 "Hg10 mi
8:53 AM36 °FLow clouds.3 mph85%29.83 "Hg10 mi
7:53 AM36 °FOvercast.5 mph85%29.80 "Hg10 mi
6:53 AM35 °FOvercast.3 mph85%29.78 "Hg10 mi
5:53 AM36 °FMostly cloudy.6 mph82%29.75 "Hg10 mi
4:53 AM39 °FOvercast.7 mph67%29.71 "Hg10 mi
3:53 AM40 °FOvercast.7 mph60%29.69 "Hg10 mi
2:53 AM40 °FOvercast.5 mph65%29.68 "Hg10 mi
1:53 AM41 °FOvercast.5 mph67%29.67 "Hg10 mi
12:53 AM41 °FOvercast.7 mph67%29.66 "Hg10 mi
11:53 PM
Fri, Feb 27
41 °FOvercast.No wind65%29.66 "Hg10 mi
10:53 PM41 °FPassing clouds.3 mph65%29.66 "Hg10 mi
9:53 PM41 °FPassing clouds.12 mph70%29.67 "Hg10 mi
8:53 PM42 °FClear.8 mph68%29.66 "Hg10 mi
7:53 PM43 °FPassing clouds.7 mph60%29.65 "Hg10 mi
6:53 PM45 °FSunny.8 mph56%29.65 "Hg10 mi
5:53 PM49 °FSunny.9 mph46%29.63 "Hg10 mi
4:53 PM51 °FSunny.12 mph42%29.63 "Hg10 mi
Weather by CustomWeather, © 2015

See weather overviewHow to use our weather pages